Orbital Elements at Epoch 2459200.5 (2020-Dec-17.0) TDB
Reference: JPL 16 (heliocentric ecliptic J2000)
Element | Value | Uncertainty (1-sigma) | Units |
e | .1391321469276378 | 4.3117e-08 | |
a | 3.125114139807668 | 2.7221e-08 | au |
q | 2.690310300142309 | 1.453e-07 | au |
i | 4.246042492532164 | 6.995e-06 | deg |
node | 23.24307972873713 | 6.4005e-05 | deg |
peri | 53.03866104149637 | 6.9621e-05 | deg |
M | 329.0503101176425 | 2.5709e-05 | deg |
tp | 2459373.980655172273 (2021-Jun-08.48065517) | 0.00014427 | TDB |
period | 2017.888906137919 5.52 | 2.6365e-05 7.218e-08 | d yr |
n | .1784042713674519 | 2.3309e-09 | deg/d |
Q | 3.559917979473027 | 3.1008e-08 | au |
|
| | Orbit Determination Parameters
Additional Information
|